Leuchars, United Kingdom

6:35 PM BST on August 20, 2017 (GMT +0100)
Leuchars Air Base

Weather History for EGQL - October, 2011

Change the Weather History Date:

Sunday, October 30, 2011

  Actual Average Record
Temperature  
Mean Temperature 54 °F -  
Max Temperature 57 °F 47 °F 60 °F (1999)
Min Temperature 51 °F 37 °F 30 °F (2003)
Degree Days  
Heating Degree Days 11    
Growing Degree Days 4 (Base 50)    
Moisture  
Dew Point 50 °F    
Average Humidity 82    
Maximum Humidity 98    
Minimum Humidity 72    
Precipitation  
Precipitation 0.00 in - - ()
Sea Level Pressure  
Sea Level Pressure 29.76 in    
Wind  
Wind Speed 12 mph ()    
Max Wind Speed 22 mph    
Max Gust Speed -    
Visibility 7.3 miles    
Events Rain    
Averages and records for this station are not official NWS values.
T = Trace of Precipitation, MM = Missing Value Source: Averaged Metar Reports

Daily Weather History Graph

Daily Weather History Graph

Search for Another Location

Airport or City:

Trip Planner

Search our weather history database for the weather conditions in past years. The results will help you decide how hot, cold, wet, or windy it might be!

Date:

Astronomy

Oct. 30, 2011 Rise Set
Actual Time 7:14 AM GMT 4:34 PM GMT
Civil Twilight 6:34 AM GMT 5:14 PM GMT
Nautical Twilight 5:50 AM GMT 5:58 PM GMT
Astronomical Twilight 5:06 AM GMT 6:42 PM GMT
Moon 11:59 AM GMT (10/30) 7:10 PM GMT (10/30)
Length of Visible Light 10h 39m
Length of Day
9h 20m
Waxing Crescent, 18% of the Moon is Illuminated
Oct 30
Waxing Crescent
Nov 2
First Quarter
Nov 10
Full
Nov 18
Last Quarter
Nov 25
New

Hourly Weather History & Observations

Time (GMT) Temp. Dew Point Humidity Pressure Visibility Wind Dir Wind Speed Gust Speed Precip Events Conditions
12:50 AM 53 °F 53 °F 98% 29.66 in 25 mi SW 13.8 mph - -   Mostly Cloudy
12:50 AM 53.6 °F 51.8 °F 94% 29.65 in 6.2 mi SW 13.8 mph - N/A   Mostly Cloudy
1:50 AM 51.8 °F 50.0 °F 94% 29.68 in 6.2 mi WSW 16.1 mph - N/A   Scattered Clouds
2:50 AM 53 °F 49 °F 82% 29.69 in 16 mi WSW 16.1 mph - - Rain Light Rain
2:50 AM 53.6 °F 50.0 °F 88% 29.68 in 6.2 mi WSW 16.1 mph - N/A Rain Light Rain
3:50 AM 53.6 °F 50.0 °F 88% 29.68 in 6.2 mi WSW 12.7 mph - N/A   Mostly Cloudy
4:50 AM 51.8 °F 48.2 °F 88% 29.68 in 6.2 mi WSW 15.0 mph - N/A   Mostly Cloudy
5:50 AM 52 °F 47 °F 77% 29.72 in 25 mi WSW 13.8 mph - -   Partly Cloudy
5:50 AM 51.8 °F 46.4 °F 82% 29.71 in 6.2 mi WSW 13.8 mph - N/A   Scattered Clouds
6:50 AM 51.8 °F 48.2 °F 88% 29.71 in 6.2 mi WSW 17.3 mph - N/A   Partly Cloudy
7:50 AM 51.8 °F 46.4 °F 82% 29.74 in 6.2 mi WSW 15.0 mph - N/A   Partly Cloudy
8:50 AM 53 °F 48 °F 77% 29.78 in 22 mi WSW 15.0 mph - -   Partly Cloudy
8:50 AM 53.6 °F 48.2 °F 82% 29.77 in 6.2 mi WSW 15.0 mph - N/A   Mostly Cloudy
9:50 AM 55.4 °F 48.2 °F 77% 29.80 in 6.2 mi WSW 15.0 mph - N/A   Mostly Cloudy
10:50 AM 55.4 °F 50.0 °F 82% 29.80 in 6.2 mi WSW 19.6 mph - N/A   Mostly Cloudy
11:20 AM 55.4 °F 48.2 °F 77% 29.80 in 6.2 mi WSW 17.3 mph - N/A   Scattered Clouds
11:50 AM 56 °F 50 °F 75% 29.82 in 28 mi West 13.8 mph - -   Partly Cloudy
11:50 AM 57.2 °F 50.0 °F 77% 29.80 in 6.2 mi West 13.8 mph - N/A   Mostly Cloudy
12:50 PM 57.2 °F 48.2 °F 72% 29.80 in 6.2 mi WSW 21.9 mph - N/A   Mostly Cloudy
1:50 PM 57.2 °F 50.0 °F 77% 29.80 in 6.2 mi West 12.7 mph - N/A   Mostly Cloudy
2:50 PM 56 °F 49 °F 72% 29.80 in 22 mi West 10.4 mph - -   Scattered Clouds
2:50 PM 57.2 °F 50.0 °F 77% 29.80 in 6.2 mi West 10.4 mph - N/A   Mostly Cloudy
3:50 PM 55.4 °F 50.0 °F 82% 29.80 in 6.2 mi WSW 9.2 mph - N/A   Mostly Cloudy
4:50 PM 55.4 °F 50.0 °F 82% 29.80 in 6.2 mi SW 3.5 mph - N/A   Overcast
5:50 PM 55 °F 51 °F 81% 29.81 in 19 mi SSW 3.5 mph - -   Overcast
5:50 PM 55.4 °F 50.0 °F 82% 29.80 in 6.2 mi SSW 3.5 mph - N/A   Mostly Cloudy
6:50 PM 57.2 °F 50.0 °F 77% 29.80 in 6.2 mi SW 9.2 mph - N/A   Overcast
7:50 PM 55.4 °F 51.8 °F 88% 29.80 in 6.2 mi South 6.9 mph - N/A   Overcast
8:50 PM 56 °F 51 °F 77% 29.80 in 12 mi East 3.5 mph - -   Overcast
8:50 PM 55.4 °F 50.0 °F 82% 29.80 in 6.2 mi East 3.5 mph - N/A   Overcast
9:50 PM 55.4 °F 51.8 °F 88% 29.77 in 6.2 mi East 3.5 mph - N/A   Overcast
10:50 PM 55.4 °F 51.8 °F 88% 29.77 in 6.2 mi SSE 5.8 mph - N/A   Mostly Cloudy